User: anonymous   Login
Location: Unspecified
(0.0000°N, 0.0000°E)
Time: 00:15:22
(UTC+00:00)
Language:

FAISAT - Orbit

View from above orbital plane
View from above orbital plane
View from above satellite
View from above satellite

Ground track
Ground track

The orbit data is extracted from the following two-line orbital elements,

1 23465U 95002C   17326.59084914 +.00000019 +00000-0 +44477-5 0  9996
2 23465 082.9263 173.8043 0036845 205.4870 206.7509 13.71878983142944
Epoch (UTC): 22 November 2017 14:10:49
Eccentricity: 0.0036845
inclination: 82.9263°
perigee height: 965 km
apogee height: 1020 km
right ascension of ascending node: 173.8043°
argument of perigee: 205.4870°
revolutions per day: 13.71878983
mean anomaly at epoch: 206.7509°
orbit number at epoch: 14294

The dashed part of the orbit path shows where the satellite is in the earth's shadow,  

DLR